"2010-11-07 00:00:00",314221,4.346,131.4,0.644,0.066,18.71,107.8995,19.5,20.36,11.58,0,110.8,13.2,20.32,93.4
"2010-11-07 00:00:30",314222,4.46,130.5,0.534,0.083,18.58,107.8998,19.5,20.34,11.57,0,110.7,13.2,20.32,92.5
"2010-11-07 00:01:00",314223,4.409,131.9,0.72,0.034,18.71,107.9001,19.5,20.35,11.58,0,110.7,13.2,20.32,93.9
"2010-11-07 00:01:30",314224,4.495,132.5,0.79,0.045,18.8,107.9001,19.5,20.35,11.59,0,110.7,13.21,20.32,94.5
"2010-11-07 00:02:00",314225,4.505,133.7,0.384,0.044,18.89,107.8984,19.5,20.35,11.61,0,110.7,13.21,20.32,95.7
"2010-11-07 00:02:30",314226,4.465,134.4,0.517,0.036,18.91,107.893,19.49,20.33,11.62,0,110.7,13.21,20.31,96.4
"2010-11-07 00:03:00",314227,4.424,135.1,0.678,0.036,18.91,107.8902,19.48,20.34,11.64,0,110.7,13.21,20.30,97.1
"2010-11-07 00:03:30",314228,4.374,135.4,0.445,0.039,18.86,107.8894,19.48,20.33,11.64,0,110.7,13.21,20.30,97.4
"2010-11-07 00:04:00",314229,4.383,133.7,0.885,0.036,18.8,107.8896,19.48,20.34,11.61,0,110.7,13.21,20.30,95.7
"2010-11-07 00:04:30",314230,4.363,133.2,0.593,0.03,18.79,107.8891,19.48,20.33,11.59,0,110.7,13.21,20.30,95.2
"2010-11-07 00:05:00",314231,4.348,132.1,0.523,0.016,18.69,107.8829,19.46,20.32,11.57,0,110.7,13.21,20.28,94.1
"2010-11-07 00:05:30",314232,4.363,131.1,0.355,0.042,18.69,107.8711,19.43,20.33,11.55,0,110.7,13.21,20.25,93.1
"2010-11-07 00:06:00",314233,4.297,131.7,0.57,0.037,18.7,107.8666,19.42,20.34,11.55,0,110.7,13.21,20.24,93.7
"2010-11-07 00:06:30",314234,4.297,131.8,0.475,0.039,18.68,107.8663,19.42,20.33,11.55,0,110.7,13.21,20.24,93.8
"2010-11-07 00:07:00",314235,4.333,132.4,0.316,0.027,18.67,107.8663,19.42,20.33,11.52,0,110.7,13.22,20.24,94.4
"2010-11-07 00:07:30",314236,4.348,132.1,0.562,0.053,18.66,107.8663,19.42,20.31,11.53,0,110.7,13.22,20.24,94.1
"2010-11-07 00:08:00",314237,4.333,132.6,0.743,0.06,18.67,107.8669,19.42,20.33,11.54,0,110.7,13.22,20.24,94.6
"2010-11-07 00:08:30",314238,4.293,132.5,0.614,0.036,18.63,107.8681,19.42,20.34,11.54,0,110.7,13.22,20.24,94.5
"2010-11-07 00:09:00",314239,4.236,132.5,0.617,0.044,18.61,107.869,19.42,20.32,11.53,0,110.7,13.22,20.24,94.5
"2010-11-07 00:09:30",314240,4.228,132.4,0.75,0.052,18.62,107.8718,19.43,20.32,11.54,0,110.7,13.22,20.25,94.4
"2010-11-07 00:10:00",314241,4.236,132.6,0.742,0.054,18.62,107.873,19.43,20.31,11.54,0,110.7,13.22,20.25,94.6
"2010-11-07 00:10:30",314242,4.278,131.8,0.677,0.017,18.68,107.8755,19.44,20.31,11.55,0,110.7,13.22,20.26,93.8
"2010-11-07 00:11:00",314243,4.246,132.8,0.436,0.045,18.61,107.8735,19.44,20.31,11.54,0,110.7,13.22,20.25,94.8
"2010-11-07 00:11:30",314244,4.296,133.2,0.445,0.038,18.68,107.8749,19.44,20.32,11.54,0,110.7,13.22,20.26,95.2
"2010-11-07 00:12:00",314245,4.257,134.3,0.577,0.062,18.61,107.8731,19.43,20.31,11.54,0,110.7,13.22,20.25,96.3
"2010-11-07 00:12:30",314246,4.197,134,0.644,0.088,18.5,107.8752,19.44,20.31,11.53,0,110.7,13.22,20.26,96.0
"2010-11-07 00:13:00",314247,4.302,135.6,1.46,0.106,18.73,107.8762,19.44,20.32,11.54,0,110.7,13.22,20.26,97.6
"2010-11-07 00:13:30",314248,4.342,136.3,0.884,0.074,18.74,107.8762,19.44,20.31,11.54,0,110.7,13.22,20.26,98.3
"2010-11-07 00:14:00",314249,4.371,136.1,0.696,0.06,18.71,107.8772,19.44,20.3,11.55,0,110.7,13.22,20.26,98.1
"2010-11-07 00:14:30",314250,4.341,136.8,0.441,0.045,18.7,107.8702,19.43,20.3,11.54,0,110.7,13.21,20.25,98.8
"2010-11-07 00:15:00",314251,4.433,138.3,1.073,0.109,18.66,107.8676,19.42,20.32,11.54,0,110.7,13.21,20.24,100.3
"2010-11-07 00:15:30",314252,4.475,139,0.856,0.1,18.63,107.8683,19.42,20.31,11.54,0,110.7,13.22,20.24,101.0
"2010-11-07 00:16:00",314253,4.577,138.2,0.931,0.074,18.56,107.8684,19.42,20.3,11.54,0,110.7,13.22,20.24,100.2
"2010-11-07 00:16:30",314254,4.66,139.4,0.934,0.144,18.68,107.869,19.42,20.29,11.53,0,110.7,13.22,20.24,101.4
"2010-11-07 00:17:00",314255,4.734,139.2,0.937,0.057,18.67,107.869,19.42,20.29,11.53,0,110.7,13.22,20.24,101.2
"2010-11-07 00:17:30",314256,4.629,140.4,1.931,0.065,18.7,107.869,19.42,20.3,11.53,0,110.7,13.22,20.24,102.4
"2010-11-07 00:18:00",314257,4.694,140.7,0.92,0.1,18.72,107.869,19.42,20.3,11.52,0,110.7,13.22,20.24,102.7
"2010-11-07 00:18:30",314258,4.747,140.6,1.564,0.062,18.72,107.869,19.42,20.31,11.54,0,110.7,13.23,20.24,102.6
"2010-11-07 00:19:00",314259,4.668,140,1.48,0.059,18.74,107.869,19.42,20.3,11.54,0,110.7,13.23,20.24,102.0
"2010-11-07 00:19:30",314260,4.476,142,0.645,0.087,18.76,107.869,19.42,20.31,11.55,0,110.7,13.23,20.24,104.0
"2010-11-07 00:20:00",314261,4.536,141.8,0.89,0.063,18.82,107.869,19.42,20.32,11.54,0,110.7,13.23,20.24,103.8
"2010-11-07 00:20:30",314262,4.569,140.2,0.702,0.041,18.68,107.869,19.42,20.33,11.52,0,110.7,13.23,20.24,102.2
"2010-11-07 00:21:00",314263,4.526,140.4,0.775,0.05,18.7,107.869,19.42,20.32,11.53,0,110.7,13.23,20.24,102.4
"2010-11-07 00:21:30",314264,4.429,142.7,0.913,0.101,18.72,107.869,19.42,20.31,11.52,0,110.7,13.23,20.24,104.7
"2010-11-07 00:22:00",314265,4.397,143,0.936,0.07,18.69,107.869,19.42,20.33,11.52,0,110.7,13.23,20.24,105.0
"2010-11-07 00:22:30",314266,4.479,143.5,0.756,0.068,18.82,107.869,19.42,20.32,11.51,0,110.7,13.23,20.24,105.5
"2010-11-07 00:23:00",314267,4.499,144.2,0.435,0.07,18.82,107.869,19.42,20.32,11.51,0,110.7,13.23,20.24,106.2
"2010-11-07 00:23:30",314268,4.56,142.5,0.591,0.084,18.77,107.869,19.42,20.33,11.5,0,110.7,13.23,20.24,104.5
"2010-11-07 00:24:00",314269,4.653,140.4,1.11,0.061,18.65,107.869,19.42,20.33,11.48,0,110.7,13.23,20.24,102.4
"2010-11-07 00:24:30",314270,4.735,137.3,0.425,0.064,18.64,107.869,19.42,20.32,11.44,0,110.7,13.23,20.24,99.3
"2010-11-07 00:25:00",314271,4.719,136.7,0.193,0.037,18.77,107.8687,19.42,20.32,11.46,0,110.7,13.23,20.24,98.7
"2010-11-07 00:25:30",314272,4.773,136,0.67,0.033,18.72,107.8456,19.36,20.3,11.47,0,110.7,13.23,20.18,98.0
"2010-11-07 00:26:00",314273,4.778,136.9,0.312,0.034,18.64,107.8355,19.34,20.27,11.48,0,110.7,13.23,20.16,98.9
"2010-11-07 00:26:30",314274,4.795,138,0.655,0.024,18.4,107.8361,19.34,20.25,11.48,0,110.7,13.23,20.16,100.0
"2010-11-07 00:27:00",314275,4.828,139.8,0.455,0.033,18.47,107.8367,19.34,20.26,11.49,0,110.7,13.23,20.16,101.8
"2010-11-07 00:27:30",314276,4.974,140.7,0.028,0.062,18.72,107.8299,19.32,20.23,11.49,0,110.7,13.24,20.14,102.7
"2010-11-07 00:28:00",314277,5.105,140.9,0.387,0.05,18.76,107.8191,19.3,20.22,11.49,0,110.7,13.24,20.11,102.9
"2010-11-07 00:28:30",314278,5.32,140.7,0.645,0.063,18.48,107.8147,19.28,20.22,11.51,0,110.7,13.24,20.10,102.7
"2010-11-07 00:29:00",314279,5.264,140.4,0.544,0.044,18.54,107.8097,19.27,20.22,11.54,0,110.7,13.24,20.09,102.4
"2010-11-07 00:29:30",314280,5.191,138.8,0.473,0.026,18.89,107.8069,19.26,20.21,11.56,0,110.7,13.23,20.08,100.8
"2010-11-07 00:30:00",314281,5.261,138.7,0.362,0.037,18.75,107.8136,19.28,20.2,11.67,0,110.7,13.23,20.10,100.7
"2010-11-07 00:30:30",314282,5.344,139.2,0.542,0.044,18.52,107.8151,19.29,20.2,11.8,0,110.7,13.23,20.10,101.2
"2010-11-07 00:31:00",314283,5.363,140.5,0.425,0.004,18.33,107.8214,19.3,20.18,11.85,0,110.7,13.23,20.12,102.5
"2010-11-07 00:31:30",314284,5.42,140.7,0.262,0.017,18.35,107.8214,19.3,20.17,11.91,0,110.7,13.23,20.12,102.7
"2010-11-07 00:32:00",314285,5.446,140.7,0.192,0.03,18.39,107.8091,19.27,20.16,11.89,0,110.7,13.23,20.09,102.7
"2010-11-07 00:32:30",314286,5.371,140.2,0.529,0.056,18.43,107.803,19.25,20.16,11.87,0,110.7,13.23,20.07,102.2
"2010-11-07 00:33:00",314287,5.294,141.2,0.64,0.005,18.45,107.8016,19.25,20.15,11.83,0,110.7,13.23,20.07,103.2
"2010-11-07 00:33:30",314288,5.28,141.6,0.381,0.065,18.43,107.8037,19.26,20.15,11.8,0,110.7,13.23,20.08,103.6
"2010-11-07 00:34:00",314289,5.386,141.6,0.773,0.038,18.44,107.8038,19.26,20.15,11.86,0,110.7,13.23,20.08,103.6
"2010-11-07 00:34:30",314290,5.276,142.3,0.522,0.026,18.39,107.8041,19.26,20.14,11.84,0,110.7,13.23,20.08,104.3
"2010-11-07 00:35:00",314291,5.225,141,0.472,0.017,18.46,107.8058,19.26,20.14,11.88,0,110.7,13.23,20.08,103.0
"2010-11-07 00:35:30",314292,5.302,141,0.485,0.041,18.31,107.8037,19.26,20.15,11.9,0,110.7,13.24,20.08,103.0
"2010-11-07 00:36:00",314293,5.185,141.8,0.323,0.069,18.43,107.8025,19.25,20.14,11.88,0,110.7,13.24,20.07,103.8
"2010-11-07 00:36:30",314294,5.059,142.5,0.613,0.053,18.74,107.8037,19.26,20.13,11.87,0,110.7,13.24,20.08,104.5
"2010-11-07 00:37:00",314295,4.997,143.2,0.802,0.04,18.77,107.8041,19.26,20.14,11.87,0,110.7,13.24,20.08,105.2
"2010-11-07 00:37:30",314296,4.985,143.6,0.441,0.039,18.74,107.8041,19.26,20.13,11.85,0,110.7,13.25,20.08,105.6
"2010-11-07 00:38:00",314297,4.927,143.9,0.229,0.032,18.85,107.8041,19.26,20.14,11.84,0,110.7,13.25,20.08,105.9
"2010-11-07 00:38:30",314298,4.882,144.2,0.338,0.028,18.89,107.8041,19.26,20.13,11.78,0,110.6,13.25,20.08,106.2
"2010-11-07 00:39:00",314299,4.941,143.6,0.446,0.047,18.9,107.8041,19.26,20.13,11.82,0,110.7,13.25,20.08,105.6
"2010-11-07 00:39:30",314300,4.944,144,0.5,0.047,18.77,107.8041,19.26,20.11,11.81,0,110.7,13.24,20.08,106.0
"2010-11-07 00:40:00",314301,4.769,143,0.492,0.059,18.65,107.8041,19.26,20.13,11.8,0,110.6,13.25,20.08,105.0
"2010-11-07 00:40:30",314302,4.653,142.4,0.522,0.044,18.39,107.8041,19.26,20.11,11.78,0,110.7,13.25,20.08,104.4
"2010-11-07 00:41:00",314303,4.656,142.2,0.521,0.032,18.4,107.8041,19.26,20.12,11.75,0,110.6,13.25,20.08,104.2
"2010-11-07 00:41:30",314304,4.72,141.5,0.48,0.036,18.37,107.8041,19.26,20.12,11.75,0,110.7,13.25,20.08,103.5
"2010-11-07 00:42:00",314305,4.704,141.4,0.414,0.036,18.38,107.8041,19.26,20.11,11.75,0,110.6,13.25,20.08,103.4
"2010-11-07 00:42:30",314306,4.702,141.1,0.621,0.039,18.36,107.8041,19.26,20.12,11.71,0,110.6,13.25,20.08,103.1
"2010-11-07 00:43:00",314307,4.789,141,0.459,0.052,18.43,107.8041,19.26,20.12,11.75,0,110.6,13.25,20.08,103.0
"2010-11-07 00:43:30",314308,4.773,141.2,0.507,0.038,18.4,107.8041,19.26,20.12,11.69,0,110.6,13.25,20.08,103.2
"2010-11-07 00:44:00",314309,4.776,140.7,0.449,0.028,18.37,107.8041,19.26,20.1,11.72,0,110.6,13.25,20.08,102.7
"2010-11-07 00:44:30",314310,4.794,140.9,0.431,0.031,18.43,107.8041,19.26,20.11,11.76,0,110.6,13.25,20.08,102.9
"2010-11-07 00:45:00",314311,4.736,140.4,0.509,0.044,18.36,107.8041,19.26,20.12,11.84,0,110.6,13.25,20.08,102.4
"2010-11-07 00:45:30",314312,4.767,141.2,0.87,0.025,18.38,107.8035,19.26,20.11,11.84,0,110.6,13.25,20.07,103.2
"2010-11-07 00:46:00",314313,4.746,142.4,0.489,0.019,18.44,107.8021,19.25,20.1,11.83,0,110.6,13.25,20.07,104.4
"2010-11-07 00:46:30",314314,4.787,143.6,0.592,0.037,18.7,107.7948,19.23,20.1,11.87,0,110.6,13.25,20.05,105.6
"2010-11-07 00:47:00",314315,4.844,143.3,0.664,0.06,18.75,107.7832,19.2,20.1,11.9,0,110.6,13.25,20.02,105.3
"2010-11-07 00:47:30",314316,4.921,142.9,0.821,0.058,18.86,107.7779,19.19,20.09,11.94,0,110.6,13.25,20.01,104.9
"2010-11-07 00:48:00",314317,4.958,143.6,0.427,0.042,18.9,107.7745,19.18,20.08,12.14,0,110.6,13.24,20.00,105.6
"2010-11-07 00:48:30",314318,4.9,143,0.48,0.062,18.87,107.7714,19.17,20.09,12.16,0,110.6,13.24,19.99,105.0
"2010-11-07 00:49:00",314319,4.799,141.4,0.683,0.039,18.44,107.7703,19.17,20.08,12.13,0,110.6,13.24,19.99,103.4
"2010-11-07 00:49:30",314320,4.824,139.5,0.643,0.044,18.27,107.7703,19.17,20.09,12.16,0,110.6,13.24,19.99,101.5
"2010-11-07 00:50:00",314321,4.933,139,0.695,0.065,18.31,107.7703,19.17,20.08,12.14,0,110.6,13.24,19.99,101.0
"2010-11-07 00:50:30",314322,4.871,138.7,0.507,0.034,18.22,107.7703,19.17,20.08,12.12,0,110.6,13.25,19.99,100.7
"2010-11-07 00:51:00",314323,4.88,139.6,0.514,0.035,18.29,107.7703,19.17,20.07,12.16,0,110.6,13.24,19.99,101.6
"2010-11-07 00:51:30",314324,4.871,140.2,0.509,0.038,18.39,107.7703,19.17,20.06,12.14,0,110.6,13.25,19.99,102.2
"2010-11-07 00:52:00",314325,4.9,140.5,0.437,0.024,18.5,107.7697,19.17,20.04,12.07,0,110.6,13.25,19.99,102.5
"2010-11-07 00:52:30",314326,4.9,140.8,0.308,0.03,18.58,107.7697,19.17,20.05,12.05,0,110.6,13.25,19.99,102.8
"2010-11-07 00:53:00",314327,4.897,141.6,0.649,0.034,18.74,107.7675,19.16,20.06,12.07,0,110.6,13.25,19.98,103.6
"2010-11-07 00:53:30",314328,4.815,140.9,0.446,0.037,18.41,107.7669,19.16,20.05,12.11,0,110.6,13.25,19.98,102.9
"2010-11-07 00:54:00",314329,4.862,140.7,0.028,0.038,18.4,107.7576,19.14,20.04,12.23,0,110.6,13.25,19.96,102.7
"2010-11-07 00:54:30",314330,4.859,140.7,0.031,0.04,18.46,107.7486,19.11,20.04,12.3,0,110.6,13.25,19.93,102.7
"2010-11-07 00:55:00",314331,4.853,141.2,0.514,0.04,18.58,107.7446,19.1,20.04,12.33,0,110.6,13.25,19.92,103.2
"2010-11-07 00:55:30",314332,5.172,141,0.445,0.087,18.52,107.7401,19.09,20.03,12.39,0,110.6,13.25,19.91,103.0
"2010-11-07 00:56:00",314333,5.258,141.6,0.835,0.091,18.34,107.7365,19.08,20.01,12.4,0,110.6,13.26,19.90,103.6
"2010-11-07 00:56:30",314334,5.061,141.8,0.188,0.04,18.86,107.7368,19.08,20,12.4,0,110.6,13.26,19.90,103.8
"2010-11-07 00:57:00",314335,5.049,142.9,0.317,0.033,18.81,107.7368,19.08,20,12.32,0,110.6,13.26,19.90,104.9
"2010-11-07 00:57:30",314336,5.017,142.9,0.322,0.034,18.85,107.7368,19.08,20,12.33,0,110.6,13.26,19.90,104.9
"2010-11-07 00:58:00",314337,4.997,142.7,0.269,0.035,18.94,107.7371,19.09,19.99,12.36,0,110.6,13.26,19.90,104.7
"2010-11-07 00:58:30",314338,5.037,142.5,0.471,0.041,18.77,107.738,19.09,20,12.4,0,110.6,13.26,19.91,104.5
"2010-11-07 00:59:00",314339,5.054,143.1,0.489,0.052,18.66,107.7389,19.09,19.99,12.4,0,110.6,13.26,19.91,105.1
"2010-11-07 00:59:30",314340,5.114,143.7,0.376,0.044,18.37,107.7404,19.09,20,12.39,0,110.6,13.26,19.91,105.7
"2010-11-07 01:00:00",314341,5.166,144.3,0.275,0.027,18.29,107.7419,19.1,20.01,12.39,0,110.6,13.26,19.92,106.3
"2010-11-07 01:00:30",314342,5.173,144.5,0.196,0.049,18.3,107.7419,19.1,20,12.37,0,110.6,13.26,19.92,106.5
"2010-11-07 01:01:00",314343,5.389,145.2,0.502,0.059,18.76,107.745,19.11,20,12.34,0,110.6,13.26,19.92,107.2
"2010-11-07 01:01:30",314344,5.476,145.4,0.32,0.044,18.82,107.7495,19.12,19.98,12.26,0,110.6,13.26,19.94,107.4
"2010-11-07 01:02:00",314345,5.379,146.1,0.534,0.028,18.77,107.7483,19.11,19.99,12.21,0,110.6,13.26,19.93,108.1
"2010-11-07 01:02:30",314346,5.4,146.6,0.044,0.023,18.74,107.7497,19.12,19.98,12.22,0,110.6,13.26,19.94,108.6
"2010-11-07 01:03:00",314347,5.393,146.6,0.044,0.027,18.74,107.7418,19.1,19.98,12.22,0,110.6,13.26,19.92,108.6
"2010-11-07 01:03:30",314348,5.259,144.4,0.833,0.041,18.43,107.7366,19.08,19.96,12.23,0,110.6,13.25,19.90,106.4
"2010-11-07 01:04:00",314349,5.225,143.9,0.244,0.013,18.32,107.7207,19.04,19.96,12.27,0,110.6,13.25,19.86,105.9
"2010-11-07 01:04:30",314350,5.234,145.2,0.501,0.019,18.47,107.7194,19.04,19.97,12.29,0,110.6,13.25,19.86,107.2
"2010-11-07 01:05:00",314351,5.258,145.6,0.048,0.034,18.55,107.7227,19.05,19.93,12.28,0,110.6,13.25,19.87,107.6
"2010-11-07 01:05:30",314352,5.209,145.6,0.028,0.028,18.29,107.7218,19.05,19.93,12.29,0,110.6,13.25,19.86,107.6
"2010-11-07 01:06:00",314353,5.166,145.6,0.037,0.02,18.25,107.7248,19.05,19.92,12.25,0,110.6,13.25,19.87,107.6
"2010-11-07 01:06:30",314354,5.171,144.4,0.506,0.023,18.26,107.7261,19.06,19.92,12.28,0,110.6,13.25,19.88,106.4
"2010-11-07 01:07:00",314355,5.246,144.9,0.655,0.028,18.46,107.7273,19.06,19.92,12.29,0,110.6,13.25,19.88,106.9
"2010-11-07 01:07:30",314356,5.264,145.3,0.581,0.041,18.54,107.7262,19.06,19.92,12.28,0,110.6,13.25,19.88,107.3
"2010-11-07 01:08:00",314357,5.153,146.3,0.513,0.051,18.24,107.7224,19.05,19.91,12.25,0,110.6,13.25,19.87,108.3
"2010-11-07 01:08:30",314358,5.152,146.5,0.318,0.036,18.27,107.7188,19.04,19.89,12.25,0,110.6,13.25,19.86,108.5
"2010-11-07 01:09:00",314359,5.054,146.6,0.044,0.037,18.12,107.7211,19.04,19.88,12.23,0,110.6,13.26,19.86,108.6
"2010-11-07 01:09:30",314360,5.067,146.6,0.189,0.04,18.11,107.7245,19.05,19.88,12.21,0,110.6,13.26,19.87,108.6
"2010-11-07 01:10:00",314361,5.105,146.2,0.53,0.017,18.12,107.7224,19.05,19.9,12.21,0,110.6,13.26,19.87,108.2
"2010-11-07 01:10:30",314362,5.137,146.3,0.519,0.028,18.22,107.7238,19.05,19.89,12.18,0,110.6,13.26,19.87,108.3
"2010-11-07 01:11:00",314363,5.153,147.3,0.531,0.028,18.29,107.7242,19.05,19.9,12.05,0,110.6,13.26,19.87,109.3
"2010-11-07 01:11:30",314364,5.218,147.8,0.337,0.029,18.42,107.7239,19.05,19.89,12.01,0,110.6,13.26,19.87,109.8
"2010-11-07 01:12:00",314365,5.268,148.8,0.193,0.049,18.43,107.7152,19.03,19.89,12,0,110.6,13.26,19.85,110.8
"2010-11-07 01:12:30",314366,5.312,148.8,0.194,0.032,18.41,107.7089,19.01,19.89,12,0,110.6,13.26,19.83,110.8
"2010-11-07 01:13:00",314367,5.29,149,0.455,0.018,18.47,107.7061,19.01,19.88,12,0,110.6,13.26,19.82,111.0
"2010-11-07 01:13:30",314368,5.29,148.9,0.322,0.016,18.5,107.7041,19,19.88,12.01,0,110.6,13.26,19.82,110.9
"2010-11-07 01:14:00",314369,5.318,148.8,0.196,0.037,18.46,107.705,19,19.87,12.01,0,110.6,13.26,19.82,110.8
"2010-11-07 01:14:30",314370,5.354,148.7,0.031,0.026,18.42,107.7053,19,19.87,12.01,0,110.6,13.26,19.82,110.7
"2010-11-07 01:15:00",314371,5.424,148.4,0.503,0.035,18.44,107.7053,19,19.86,11.98,0,110.6,13.26,19.82,110.4
"2010-11-07 01:15:30",314372,5.432,147.9,0.425,0.033,18.46,107.705,19,19.87,11.95,0,110.6,13.26,19.82,109.9
"2010-11-07 01:16:00",314373,5.459,148.8,0.472,0.036,18.48,107.7053,19,19.85,11.94,0,110.6,13.26,19.82,110.8
"2010-11-07 01:16:30",314374,5.482,149.2,0.523,0.019,18.47,107.705,19,19.85,11.92,0,110.6,13.26,19.82,111.2
"2010-11-07 01:17:00",314375,5.489,148.8,0.028,0.01,18.44,107.7053,19,19.85,11.94,0,110.6,13.26,19.82,110.8
"2010-11-07 01:17:30",314376,5.541,149,0.451,0.047,18.33,107.7053,19,19.85,11.99,0,110.6,13.27,19.82,111.0
"2010-11-07 01:18:00",314377,5.687,150,0.301,0.023,18.29,107.7053,19,19.84,12.04,0,110.6,13.27,19.82,112.0
"2010-11-07 01:18:30",314378,5.7,149.9,0.201,0.017,18.31,107.7053,19,19.82,12.06,0,110.6,13.27,19.82,111.9
"2010-11-07 01:19:00",314379,5.761,149.8,0.034,0.041,18.31,107.7025,19,19.83,12.07,0,110.6,13.27,19.81,111.8
"2010-11-07 01:19:30",314380,5.859,150,0.302,0.029,18.32,107.6937,18.97,19.81,12.09,0,110.6,13.26,19.79,112.0
"2010-11-07 01:20:00",314381,5.877,150,0.3,0.017,18.3,107.6766,18.93,19.82,12.13,0,110.6,13.27,19.75,112.0
"2010-11-07 01:20:30",314382,5.885,150.5,0.127,0.005,18.28,107.6715,18.92,19.82,12.18,0,110.6,13.26,19.74,112.5
"2010-11-07 01:21:00",314383,5.885,150.4,0.284,0.02,18.28,107.6715,18.92,19.81,12.17,0,110.6,13.26,19.74,112.4
"2010-11-07 01:21:30",314384,5.858,150.5,0.121,0.028,18.29,107.6715,18.92,19.8,12.17,0,110.6,13.26,19.74,112.5
"2010-11-07 01:22:00",314385,5.899,150.6,0.02,0.033,18.23,107.6715,18.92,19.8,12.2,0,110.6,13.26,19.74,112.6
"2010-11-07 01:22:30",314386,5.966,151.8,0.561,0.014,18.31,107.6715,18.92,19.77,12.21,0,110.6,13.26,19.74,113.8
"2010-11-07 01:23:00",314387,5.967,153.5,0.608,0.003,18.48,107.6659,18.9,19.75,12.24,0,110.6,13.26,19.72,115.5
"2010-11-07 01:23:30",314388,5.91,154.6,0.517,0.037,18.53,107.6583,18.88,19.75,12.27,0,110.6,13.26,19.70,116.6
"2010-11-07 01:24:00",314389,5.846,155.7,0.452,0.025,18.4,107.6583,18.88,19.74,12.26,0,110.6,13.26,19.70,117.7
"2010-11-07 01:24:30",314390,5.897,156,0.034,0.048,18.52,107.658,18.88,19.75,12.24,0,110.6,13.26,19.70,118.0
"2010-11-07 01:25:00",314391,5.904,156,0.028,0.022,18.57,107.6611,18.89,19.75,12.21,0,110.6,13.26,19.71,118.0
"2010-11-07 01:25:30",314392,5.885,156,0.02,0.02,18.53,107.6566,18.88,19.74,12.13,0,110.6,13.26,19.70,118.0
"2010-11-07 01:26:00",314393,5.824,155.9,0.028,0.023,18.4,107.6616,18.89,19.73,12.13,0,110.6,13.26,19.71,117.9
"2010-11-07 01:26:30",314394,5.727,154.7,0.366,0.027,18.29,107.6633,18.9,19.75,12.15,0,110.6,13.27,19.71,116.7
"2010-11-07 01:27:00",314395,5.854,151.9,0.569,0.104,18.19,107.6543,18.87,19.74,12.26,0,110.6,13.27,19.69,113.9
"2010-11-07 01:27:30",314396,6.07,152.8,0.537,0.046,18.34,107.6377,18.83,19.72,12.29,0,110.6,13.27,19.65,114.8
"2010-11-07 01:28:00",314397,6.093,152.4,0.569,0.053,18.4,107.6332,18.82,19.7,12.3,0,110.6,13.27,19.64,114.4
"2010-11-07 01:28:30",314398,6.42,151.4,0.451,0.124,18.27,107.607,18.75,19.68,12.32,0,110.6,13.27,19.57,113.4
"2010-11-07 01:29:00",314399,5.919,150.8,0.473,0.217,18.25,107.6039,18.74,19.65,12.35,0,110.6,13.27,19.56,112.8
"2010-11-07 01:29:30",314400,5.57,152.3,0.512,0.027,18.61,107.6039,18.74,19.65,12.35,0,110.6,13.27,19.56,114.3
"2010-11-07 01:30:00",314401,5.512,152.7,0.195,0.031,18.64,107.6039,18.74,19.63,12.34,0,110.6,13.27,19.56,114.7
"2010-11-07 01:30:30",314402,5.386,152.7,0.034,0.045,18.51,107.6039,18.74,19.62,12.34,0,110.6,13.27,19.56,114.7
"2010-11-07 01:31:00",314403,5.27,151.9,0.455,0.029,18.31,107.6039,18.74,19.63,12.31,0,110.6,13.27,19.56,113.9
"2010-11-07 01:31:30",314404,5.221,151.9,0.499,0.004,18.3,107.6039,18.74,19.62,12.3,0,110.6,13.27,19.56,113.9
"2010-11-07 01:32:00",314405,5.399,151.6,0.044,0.127,18.45,107.6039,18.74,19.65,12.3,0,110.6,13.27,19.56,113.6
"2010-11-07 01:32:30",314406,5.448,151.4,0.425,0.054,18.49,107.6039,18.74,19.62,12.27,0,110.6,13.27,19.56,113.4
"2010-11-07 01:33:00",314407,5.267,151,0.534,0.058,18.17,107.6039,18.74,19.63,12.27,0,110.6,13.27,19.56,113.0
"2010-11-07 01:33:30",314408,5.127,151.6,0.044,0.054,18.08,107.6039,18.74,19.62,12.32,0,110.6,13.27,19.56,113.6
"2010-11-07 01:34:00",314409,5.002,152.3,0.491,0.04,18.26,107.6039,18.74,19.62,12.36,0,110.6,13.27,19.56,114.3
"2010-11-07 01:34:30",314410,4.975,153.6,0.518,0.038,18.28,107.6014,18.74,19.6,12.35,0,110.6,13.27,19.55,115.6
"2010-11-07 01:35:00",314411,5.063,154.5,0.548,0.036,18.18,107.5873,18.7,19.59,12.32,0,110.6,13.27,19.52,116.5
"2010-11-07 01:35:30",314412,4.998,153.3,0.506,0.027,18.23,107.5766,18.67,19.57,12.32,0,110.6,13.27,19.49,115.3
"2010-11-07 01:36:00",314413,4.987,152.6,0,0.028,18.31,107.571,18.66,19.58,12.32,0,110.6,13.27,19.48,114.6
"2010-11-07 01:36:30",314414,4.964,153,0.517,0.017,18.34,107.5701,18.66,19.58,12.32,0,110.6,13.27,19.47,115.0
"2010-11-07 01:37:00",314415,5.003,154.4,0.564,0.031,18.17,107.5701,18.66,19.56,12.3,0,110.6,13.27,19.47,116.4
"2010-11-07 01:37:30",314416,5.046,154.8,0.273,0.038,18.14,107.5701,18.66,19.56,12.27,0,110.6,13.27,19.47,116.8
"2010-11-07 01:38:00",314417,5.193,153.8,0.028,0.044,18.22,107.5701,18.66,19.55,12.29,0,110.6,13.27,19.47,115.8
"2010-11-07 01:38:30",314418,5.226,153.2,0.544,0.005,18.22,107.5701,18.66,19.55,12.27,0,110.6,13.26,19.47,115.2
"2010-11-07 01:39:00",314419,5.315,152.7,0,0.073,18.25,107.5701,18.66,19.54,12.3,0,110.6,13.26,19.47,114.7
"2010-11-07 01:39:30",314420,5.317,152.8,0.277,0.067,18.22,107.5701,18.66,19.53,12.3,0,110.6,13.26,19.47,114.8
"2010-11-07 01:40:00",314421,5.497,152.7,0.329,0.083,18.09,107.5603,18.63,19.52,12.28,0,110.6,13.26,19.45,114.7
"2010-11-07 01:40:30",314422,5.586,150.7,0.651,0.032,18.12,107.5363,18.57,19.5,12.27,0,110.6,13.27,19.39,112.7
"2010-11-07 01:41:00",314423,5.635,149.8,0.202,0.049,18.14,107.5363,18.57,19.48,12.32,0,110.6,13.27,19.39,111.8
"2010-11-07 01:41:30",314424,5.732,150.3,0.642,0.077,18.26,107.5332,18.56,19.45,12.3,0,110.6,13.27,19.38,112.3
"2010-11-07 01:42:00",314425,5.705,150.9,2.202,0.491,17.83,107.509,18.5,19.43,12.34,0,110.6,13.27,19.32,112.9
"2010-11-07 01:42:30",314426,5.578,149.8,2.455,0.282,18.13,107.48,18.43,19.4,12.42,0,110.6,13.27,19.24,111.8
"2010-11-07 01:43:00",314427,5.204,152.6,1.204,0.046,18.24,107.4837,18.44,19.39,12.37,0,110.6,13.27,19.25,114.6
"2010-11-07 01:43:30",314428,5.512,156.2,0.335,0.176,18.44,107.5025,18.48,19.38,12.35,0,110.6,13.27,19.30,118.2
"2010-11-07 01:44:00",314429,5.85,158,0.954,0.152,18.26,107.5025,18.48,19.38,12.36,0,110.6,13.27,19.30,120.0
"2010-11-07 01:44:30",314430,5.89,159.6,1.12,0.199,18.21,107.5025,18.48,19.38,12.36,0,110.6,13.27,19.30,121.6
"2010-11-07 01:45:00",314431,5.885,155.6,0.853,0.195,18.22,107.5025,18.48,19.39,12.37,0,110.6,13.27,19.30,117.6
"2010-11-07 01:45:30",314432,5.703,156.9,0.637,0.259,18.23,107.5025,18.48,19.38,12.37,0,110.6,13.27,19.30,118.9
"2010-11-07 01:46:00",314433,5.18,160.4,0.715,0.105,18.31,107.5025,18.48,19.38,12.38,0,110.6,13.27,19.30,122.4
"2010-11-07 01:46:30",314434,5.573,156,2.151,0.203,18.2,107.5025,18.48,19.38,12.37,0,110.6,13.27,19.30,118.0
"2010-11-07 01:47:00",314435,5.775,153.7,2.583,0.203,17.96,107.5025,18.48,19.37,12.39,0,110.6,13.28,19.30,115.7
"2010-11-07 01:47:30",314436,5.109,156.7,4.884,0.423,17.7,107.482,18.43,19.36,12.59,0,110.6,13.28,19.25,118.7
"2010-11-07 01:48:00",314437,4.984,162.4,10.36,0.548,17.35,107.4397,18.32,19.29,12.77,0,110.6,13.28,19.14,124.4